Volver al catálogo

STARLINK-5454

ActivoComunicacionesVLEO
NORAD 54774·PAYLOAD·🇺🇸 United States

Lanzado Dec 17, 2022 desde Cape Canaveral Space Force Station

Loading…

Próximos Pases (próximas 24 horas)

TLE

ActualizadoSource: CelesTrak SupGP

Época: Sep 14, 2026, 21:30 UTC

1 54774C 22175S   26257.89631944  .00025371  00000+0  74968-3 0  2571
2 54774  53.1564 246.1310 0001355  96.4969  76.0767 15.34373869    10

Sigue STARLINK-5454 en tiempo real con AllMySat

Download on the App Store